Location: Chateh
(58.6667°N, 118.6000°W)
Time: 09:28:49
(UTC+00:00)

SEEDS - Visible Passes

Search period start: 02 December 2023 00:00
Search period end: 12 December 2023 00:00
Orbit: 562 x 574 km, 97.7° (Epoch: 01 December)

Date Brightness Start Highest point End Pass type
(mag) Time Alt. Az. Time Alt. Az. Time Alt. Az.
02 Dec ? 00:26:49 10° WSW 00:28:28 12° W 00:30:07 10° WNW visible
02 Dec ? 13:29:25 10° N 13:29:45 12° N 13:29:45 12° N visible
03 Dec ? 00:28:17 10° WSW 00:29:49 12° W 00:31:21 10° WNW visible
03 Dec ? 13:30:45 10° N 13:30:59 11° N 13:30:59 11° N visible
04 Dec ? 00:29:44 10° WSW 00:31:08 11° W 00:32:32 10° WNW visible
04 Dec ? 13:32:03 10° N 13:32:11 11° N 13:32:11 11° N visible
05 Dec ? 00:31:10 10° W 00:32:26 11° W 00:33:41 10° WNW visible
05 Dec ? 13:33:20 10° N 13:33:22 10° N 13:33:22 10° N visible
06 Dec ? 00:32:35 10° W 00:33:41 11° W 00:34:48 10° WNW visible
07 Dec ? 00:34:00 10° W 00:34:55 11° W 00:35:51 10° WNW visible
08 Dec ? 00:35:25 10° W 00:36:08 10° W 00:36:50 10° WNW visible
09 Dec ? 00:36:56 10° W 00:37:18 10° W 00:37:40 10° WNW visible
